GEFSSGP_500_meanwind_096.txt.gz
Wind_Speed
4 3 3 1 1 3 4 5 7 8 9 10 10 11 11 10 9 10 10 10 11 11 12 12 12 12 12 13 13 14 15 15 16 16 17 17 18 18 19 19 20 20 20 20 21 21 21 22 22
4 3 2 1 1 2 4 5 6 7 9 9 10 10 10 10 9 9 10 10 11 11 12 12 12 13 13 14 14 15 16 16 16 17 18 18 19 20 20 20 21 21 21 21 21 22 22 22 23
4 3 1 1 1 1 3 4 6 6 7 8 9 10 10 10 10 9 10 10 10 11 12 12 13 13 14 15 15 16 16 17 17 18 19 19 20 20 21 21 21 22 22 22 22 22 23 23 23
4 3 2 1 1 1 2 4 5 6 6 7 8 10 10 10 10 10 11 11 11 11 12 13 14 14 15 16 16 17 17 18 18 19 19 20 21 21 21 22 22 22 22 22 23 23 23 23 24
6 5 4 3 2 2 2 3 4 5 6 7 8 8 10 10 10 11 11 12 12 13 13 14 15 15 16 17 17 18 18 18 19 19 20 20 20 21 21 21 22 22 23 23 23 24 24 24 24
8 7 6 5 5 4 4 3 4 5 6 7 8 9 10 10 10 11 11 12 13 13 14 15 15 15 16 16 17 17 18 18 19 19 19 20 20 21 22 22 23 23 23 24 24 25 25 25 25
11 10 9 8 7 6 6 5 5 6 6 8 9 10 10 10 10 11 11 12 13 13 14 15 15 15 16 17 17 17 18 19 19 20 20 21 21 22 23 23 24 24 25 25 25 26 26 26 26
15 13 12 10 9 9 8 8 8 8 8 8 9 10 10 11 11 11 12 12 13 13 14 14 15 15 16 17 17 18 19 19 20 21 21 22 23 23 24 25 25 26 26 27 27 27 28 28 28
18 16 15 13 12 11 11 10 10 10 10 10 11 11 11 12 12 13 13 14 14 14 14 15 16 17 17 18 19 19 20 21 21 22 23 23 24 25 25 26 26 27 27 28 28 29 29 29 29
20 19 18 17 16 15 14 13 13 12 12 12 12 13 13 13 14 14 15 16 16 17 17 18 18 19 20 20 21 21 22 22 23 23 24 25 25 26 26 27 27 28 28 29 29 29 30 30 30
24 23 22 21 20 18 17 16 16 15 15 15 15 15 15 15 16 16 17 18 19 19 20 20 21 21 22 22 22 23 23 23 23 24 24 25 26 26 27 27 28 28 28 29 29 30 30 31 31
27 27 26 25 23 22 21 20 19 17 18 18 17 17 17 18 18 19 20 20 21 22 22 23 23 23 24 24 24 24 24 24 24 25 25 26 26 26 27 27 27 28 29 29 30 30 31 31 32
31 30 30 29 27 26 25 23 22 20 22 21 20 20 21 21 21 22 22 23 24 24 25 25 25 26 26 26 26 26 25 26 26 26 26 26 27 27 27 28 29 29 30 30 30 31 31 32 32
34 33 33 32 31 30 29 27 25 24 26 24 24 24 24 24 24 24 25 25 25 26 27 27 27 27 27 27 27 27 27 27 27 27 27 27 28 28 28 29 30 30 30 31 32 32 33 33 34
37 36 35 35 35 34 33 30 28 29 29 28 27 26 26 27 27 27 27 27 27 28 28 29 29 29 29 29 28 28 28 28 28 28 28 28 29 29 29 30 30 31 31 32 33 33 34 35 35
38 38 37 37 38 37 36 32 32 33 31 31 30 29 29 29 29 29 29 29 29 29 29 30 30 30 30 29 29 29 29 29 29 29 29 29 29 29 30 30 31 32 32 33 34 34 35 35 36
37 37 37 38 39 39 39 35 34 36 34 33 32 32 31 31 32 31 31 30 31 30 31 31 31 30 30 30 30 29 29 29 29 29 29 29 30 30 31 31 32 33 34 34 35 35 36 36 36
37 38 37 37 39 41 41 37 35 37 36 34 34 34 33 34 34 34 33 33 32 32 32 32 31 31 31 31 30 30 30 30 30 30 30 30 31 31 32 33 33 34 35 36 36 37 37 37 37
40 40 38 37 40 42 42 40 36 38 38 36 35 35 35 35 36 36 35 34 33 33 33 32 32 31 31 31 31 31 31 31 30 30 31 32 32 33 33 34 35 36 36 37 38 38 39 39 39
41 41 39 39 41 44 43 41 38 38 39 39 37 37 37 37 38 37 36 36 35 34 34 33 32 32 32 32 32 31 31 31 31 32 32 33 34 35 35 36 37 38 38 39 39 40 40 41 41
40 40 40 41 43 45 46 43 38 37 38 39 39 38 38 38 38 38 37 36 36 35 34 34 34 33 33 32 32 32 32 32 32 33 34 35 35 36 37 38 39 40 41 41 42 42 42 43 44
38 38 39 41 43 44 46 47 37 36 37 38 39 39 38 38 38 38 38 37 36 35 35 35 34 34 34 33 33 33 33 33 34 34 35 36 37 37 38 40 41 42 43 43 44 44 44 45 45
37 38 40 41 42 43 42 46 39 34 34 35 37 38 38 38 38 38 38 37 36 36 35 35 35 35 35 34 34 34 34 35 35 36 36 37 38 39 41 42 43 43 44 45 46 46 47 47 47
38 39 40 41 42 43 39 43 42 33 33 33 35 37 37 37 36 36 37 36 36 36 35 35 36 36 36 36 35 35 36 36 37 37 38 39 40 42 43 44 45 45 46 47 47 48 48 48 48
37 37 40 42 43 42 40 41 40 35 33 32 33 35 35 35 35 35 35 35 35 35 35 36 36 36 36 36 37 37 37 38 38 39 40 41 42 44 45 46 47 47 48 49 49 49 49 50 50
35 37 39 41 42 41 41 40 35 33 31 31 32 33 34 35 35 35 34 34 34 35 35 36 36 37 37 37 38 38 38 39 40 41 42 43 44 46 47 48 48 49 50 50 50 50 51 51 51
36 37 37 40 42 42 41 38 33 30 30 30 31 32 33 34 34 34 33 33 34 35 35 36 36 37 37 38 38 39 40 41 42 43 44 45 46 47 48 49 50 51 51 51 51 51 52 52 53
37 37 37 40 41 41 39 34 31 29 29 30 30 32 32 33 33 32 32 32 33 34 35 35 36 37 37 38 39 40 41 42 43 44 45 46 48 49 49 51 52 52 52 52 52 52 52 53 54
36 37 38 39 41 41 39 34 30 28 27 27 28 29 30 31 31 32 32 32 32 33 34 35 36 36 37 39 40 41 42 44 45 46 47 48 49 50 51 52 52 52 52 52 52 53 53 54 55
37 38 38 38 38 38 39 35 29 28 27 27 27 28 29 31 31 32 32 32 32 33 34 35 36 37 38 40 41 42 44 45 46 47 48 49 51 52 52 52 52 52 53 53 53 54 55 56 56

GEFSSGP_500_meanwind_102.txt.gz
Wind_Speed
1 1 2 3 4 5 6 7 9 10 10 10 10 11 11 11 11 11 11 11 11 12 12 12 12 12 13 13 14 15 15 16 16 17 18 18 18 19 19 20 20 20 21 21 21 21 21 21 21
0 1 2 4 4 6 6 7 8 9 10 10 10 10 11 11 11 11 11 11 11 11 12 12 12 13 13 14 15 15 15 16 17 18 18 19 19 20 20 20 21 21 21 21 21 21 21 21 21
2 2 3 4 5 6 7 8 8 8 9 10 10 10 11 11 11 11 11 11 11 11 12 12 13 14 14 15 15 16 16 17 18 19 19 19 20 20 21 21 21 21 21 21 21 21 21 21 21
4 3 4 4 5 6 7 8 8 8 9 9 9 10 11 11 12 12 12 12 12 12 12 13 13 14 14 15 16 17 18 18 19 19 20 21 21 21 21 21 21 21 21 21 21 21 21 21 21
7 6 5 5 6 6 7 7 8 8 9 9 9 10 10 11 12 12 12 12 13 13 13 13 14 15 16 16 17 18 19 19 19 20 20 20 21 21 21 21 21 21 21 21 21 22 22 22 22
10 9 8 8 7 7 7 8 9 9 9 9 9 10 10 11 12 12 13 13 13 14 14 15 16 16 17 18 18 19 19 19 20 20 20 21 21 21 21 21 21 22 22 22 22 23 23 23 23
14 12 12 11 10 9 9 9 10 11 11 10 11 11 11 11 11 12 13 14 15 15 16 16 16 17 17 18 18 18 19 19 19 20 20 21 21 21 22 22 22 23 23 23 24 24 24 24 25
18 16 15 14 13 12 12 11 11 11 12 12 12 12 12 12 12 13 14 14 14 15 16 16 16 16 16 17 17 18 19 19 20 21 21 22 22 23 23 24 24 24 24 25 25 25 25 26 26
22 20 19 18 16 15 14 14 13 13 13 13 13 14 13 14 14 14 14 14 14 14 15 15 15 16 17 17 18 19 20 21 22 22 23 23 24 25 25 25 25 25 25 26 26 26 26 26 27
25 23 22 22 20 19 17 17 16 15 15 15 15 15 15 15 15 15 15 15 15 15 16 16 17 17 18 19 20 21 21 22 23 24 24 25 25 25 26 25 26 26 26 26 26 26 26 26 27
29 27 26 25 24 22 21 20 19 18 18 18 17 17 17 17 17 17 17 17 17 17 17 18 18 19 20 21 21 22 23 24 25 25 25 26 26 26 26 26 27 27 27 27 27 27 27 27 27
32 31 30 29 27 26 25 23 22 21 21 21 20 20 19 19 19 19 19 19 19 20 20 20 21 21 22 23 24 24 25 26 26 26 27 27 27 27 27 27 27 27 27 27 27 28 28 28 28
35 33 33 32 31 29 28 27 25 24 25 24 23 22 22 22 22 22 22 22 23 23 23 23 23 24 25 25 26 26 27 27 27 28 29 29 29 29 29 28 28 28 28 28 28 28 28 28 29
37 36 36 35 34 33 31 30 29 28 29 27 26 26 25 25 25 25 25 25 25 25 25 26 26 26 26 27 27 28 28 29 29 30 30 30 30 30 29 29 29 29 29 29 29 29 29 29 29
39 38 38 37 37 36 35 33 32 32 32 31 30 29 29 28 28 28 28 28 28 28 28 28 28 28 28 29 29 29 30 30 30 31 31 31 31 31 30 30 30 30 30 30 30 30 30 30 30
40 40 39 39 39 39 38 36 36 36 35 34 33 33 32 31 31 31 31 31 31 30 30 31 31 30 30 30 31 31 31 31 31 31 32 32 32 32 31 31 31 30 30 30 31 31 31 31 32
40 40 39 40 41 41 41 39 38 39 38 37 36 35 35 34 34 34 34 33 33 33 33 33 33 33 32 33 33 33 32 32 32 32 32 33 33 32 32 32 32 31 31 31 31 32 33 33 34
39 40 40 40 42 43 43 41 40 41 41 39 38 37 37 36 37 37 36 35 35 35 35 35 35 35 34 34 34 34 33 33 33 32 33 33 33 33 33 33 32 32 32 32 33 33 34 35 36
41 42 41 40 42 43 43 42 40 41 42 41 40 39 39 39 39 39 38 37 37 36 36 36 36 36 36 36 35 35 34 34 33 33 34 34 34 34 33 33 33 33 33 34 34 35 36 37 37
42 42 41 41 43 45 44 43 40 40 41 42 41 41 41 41 41 41 40 39 38 38 37 37 37 37 37 37 36 36 35 35 34 34 34 34 34 34 34 34 34 34 34 35 36 37 38 38 39
41 40 40 40 42 45 46 44 40 38 39 40 41 42 42 42 41 41 41 41 40 39 38 38 37 37 37 36 36 36 35 35 35 35 35 35 34 34 34 35 35 36 36 37 38 39 40 40 41
40 39 40 41 42 44 45 46 40 38 38 39 41 42 41 41 42 42 42 42 41 41 40 38 38 37 37 37 36 36 36 36 36 36 36 35 35 35 35 36 37 37 38 39 40 41 42 43 43
39 39 39 40 42 43 43 46 41 37 36 37 40 42 42 41 41 41 41 41 41 40 39 39 38 37 37 36 36 36 37 37 36 35 35 36 36 36 36 37 38 38 39 41 42 43 44 44 45
38 38 39 40 41 43 40 42 41 35 34 35 37 39 40 41 40 40 40 40 40 39 38 37 37 37 36 36 36 36 36 36 35 35 35 36 36 37 38 38 39 40 41 43 44 44 45 46 47
38 37 38 40 41 42 39 40 39 35 33 33 34 36 38 39 39 39 39 39 38 37 37 37 36 36 36 36 36 36 36 36 36 36 36 37 37 38 39 40 41 42 43 44 45 46 47 48 48
36 37 38 39 40 40 39 38 34 32 31 32 33 34 36 37 38 38 38 37 37 37 36 36 36 35 35 35 35 35 35 36 36 36 37 38 39 39 40 41 42 43 44 45 46 47 48 49 49
37 37 36 38 40 40 39 35 30 28 31 32 32 32 33 34 35 35 36 35 35 35 35 35 35 34 34 35 35 34 35 35 36 37 39 39 40 40 41 42 43 44 46 47 48 49 49 49 50
37 36 37 39 40 40 38 33 28 27 28 29 30 30 30 31 32 33 34 34 34 33 33 34 34 34 34 34 34 35 35 36 37 38 39 40 40 41 42 44 45 46 47 48 48 49 50 50 50
37 37 37 38 39 39 37 33 27 26 26 27 28 29 29 29 30 30 31 32 32 32 32 33 33 33 33 33 34 34 35 37 38 38 39 40 41 42 44 45 46 47 48 49 49 50 50 50 51
39 38 37 38 37 36 36 34 28 26 27 28 29 29 29 29 29 29 29 29 30 30 31 31 32 32 33 34 35 36 36 37 37 38 39 41 43 44 45 46 47 47 48 49 50 50 50 51 51

GEFSSGP_500_meanwind_108.txt.gz
Wind_Speed
5 4 5 6 7 8 9 10 11 12 14 14 14 15 16 15 13 13 13 13 13 13 13 13 13 13 12 12 12 12 12 13 13 13 13 14 14 14 15 15 16 17 18 18 18 18 18 19 19
7 6 7 7 7 8 9 10 10 11 12 13 13 14 15 14 13 13 12 12 12 13 13 13 13 13 13 13 13 13 13 13 13 13 13 14 15 15 16 16 17 17 17 18 18 18 18 19 19
9 9 8 8 8 9 10 10 11 11 11 12 13 14 14 12 12 13 13 13 12 12 12 13 13 13 13 13 13 13 13 13 14 14 15 15 16 16 17 17 17 17 18 18 19 19 19 19 20
11 11 10 10 10 11 11 11 11 11 11 12 13 14 13 12 12 13 13 13 13 13 13 13 14 14 14 13 14 14 14 15 15 15 16 16 16 17 17 17 18 18 19 19 19 19 20 20 21
15 14 13 12 12 12 11 11 11 12 12 13 14 14 12 13 12 13 13 13 14 14 14 14 14 13 14 14 15 15 16 16 16 16 17 17 17 17 17 18 19 19 20 20 20 20 21 21 22
18 17 16 14 14 14 13 12 13 14 14 14 14 14 12 13 13 13 13 13 13 14 14 14 14 14 15 16 16 16 16 17 17 17 17 17 17 18 18 19 20 20 21 21 22 22 23 23 23
22 20 19 18 17 16 15 14 15 15 15 15 15 15 13 14 14 14 13 13 14 14 15 15 15 16 16 16 17 17 16 16 17 17 18 18 18 18 19 20 21 21 22 23 23 24 24 25 25
26 24 22 21 20 19 17 16 17 17 18 17 17 17 14 14 15 15 15 14 15 15 16 16 16 16 17 17 17 17 17 17 17 18 18 19 19 20 21 22 22 23 23 24 25 25 25 26 26
30 28 25 24 23 22 20 19 19 19 19 18 19 18 15 16 17 17 16 16 16 16 16 17 17 17 17 18 17 17 17 18 18 19 20 20 21 22 23 23 24 24 25 25 26 26 26 27 27
33 31 29 29 27 26 24 22 21 21 21 21 21 20 19 18 18 18 18 18 18 18 18 18 18 18 18 18 18 18 19 19 20 21 22 22 23 24 24 25 25 25 26 27 27 27 27 28 28
36 34 33 32 31 28 27 25 25 24 23 23 23 22 21 20 20 20 20 19 19 19 19 19 19 19 19 19 20 20 21 22 22 23 24 24 25 25 26 26 27 27 27 28 28 29 29 29 29
39 37 37 36 34 32 31 29 28 27 27 27 26 24 22 23 22 22 22 22 21 21 21 21 21 21 22 22 22 23 23 24 25 25 26 26 27 27 28 28 28 28 29 29 29 30 30 30 30
42 40 39 38 37 35 34 33 31 30 30 29 28 27 25 26 25 25 25 24 24 24 24 24 24 24 24 24 24 25 26 26 27 27 28 28 29 29 30 30 30 30 30 30 31 31 31 31 32
43 42 41 40 39 38 37 36 35 33 33 32 31 30 29 28 28 27 27 27 27 27 27 27 27 27 27 27 27 28 28 29 29 30 30 31 31 31 31 31 31 31 31 32 32 32 32 32 32
44 44 43 42 42 40 40 39 38 36 36 35 34 33 33 31 31 30 30 30 30 30 29 30 30 30 30 30 30 30 31 31 31 32 32 32 33 33 33 33 33 33 33 33 33 33 33 33 33
45 45 44 43 44 43 43 40 39 39 39 38 37 36 35 34 33 33 33 33 33 33 32 32 33 33 32 33 33 33 32 33 33 34 34 34 34 34 34 34 34 34 34 34 34 34 34 34 34
46 45 43 43 45 45 46 43 41 42 41 40 39 38 38 37 37 36 36 36 36 36 36 35 36 36 35 35 35 35 35 35 35 35 36 36 36 36 36 36 35 35 35 35 35 35 35 35 35
43 43 43 43 45 46 46 45 43 44 43 42 41 41 40 40 39 40 40 39 39 39 39 38 38 38 38 37 37 37 37 37 37 37 37 37 37 37 36 36 36 36 36 36 36 36 35 35 35
43 44 44 44 45 46 45 44 44 45 45 44 43 42 42 42 42 42 42 41 41 41 41 40 40 40 40 40 39 39 38 38 38 38 38 38 38 37 36 36 36 36 37 37 36 36 36 36 37
44 44 44 44 45 46 45 44 42 43 44 44 44 43 43 44 44 44 43 43 42 42 43 42 42 42 42 42 41 41 40 40 39 39 39 39 38 37 37 37 37 37 37 37 37 37 37 38 38
45 45 43 43 44 47 47 45 43 42 43 43 43 43 44 44 44 45 45 44 44 43 43 44 43 42 43 43 42 41 40 40 40 40 40 40 39 38 38 38 38 38 38 38 38 38 39 39 40
45 42 42 43 45 45 46 48 43 42 42 42 43 42 43 44 44 44 44 44 45 44 45 45 44 44 43 43 42 42 42 41 41 40 40 40 39 38 38 38 38 38 38 38 38 39 40 40 41
43 42 43 43 44 45 45 49 44 41 41 41 42 42 42 43 43 43 43 43 43 44 44 44 44 44 43 43 43 43 42 42 41 41 40 40 39 39 38 38 38 38 39 39 39 40 41 41 42
43 43 43 43 44 46 42 45 46 41 39 39 39 40 41 41 42 42 43 42 42 42 42 42 43 43 42 43 43 43 42 42 41 41 40 39 39 38 38 38 38 38 39 40 40 41 42 42 42
45 44 43 43 45 45 40 43 44 39 37 37 37 38 39 40 40 41 41 41 40 40 40 40 40 40 41 41 42 41 41 41 40 40 39 38 38 38 38 39 39 39 40 41 41 42 43 43 43
44 43 43 42 42 42 42 43 40 36 35 34 34 36 36 37 38 39 39 39 39 39 39 39 39 39 39 39 40 40 40 39 39 39 38 38 38 38 39 39 39 40 40 42 42 42 42 44 45
44 44 41 41 42 42 43 41 37 34 33 33 33 34 34 35 36 37 37 37 37 37 37 37 37 37 37 38 38 38 38 38 38 38 38 38 38 38 39 39 40 41 42 42 42 43 44 45 46
45 42 42 43 43 43 42 40 36 34 32 31 31 31 32 33 33 34 34 34 34 34 34 35 35 35 35 35 36 36 36 36 37 37 37 38 38 39 39 39 41 41 41 42 43 44 45 46 46
44 45 45 44 44 43 42 39 35 33 31 30 30 30 30 30 31 31 31 31 32 32 32 32 32 33 33 33 34 35 35 36 36 37 37 37 38 39 39 40 41 41 42 43 43 44 45 46 47
43 43 44 45 44 42 41 39 35 33 31 30 29 29 28 29 29 29 29 30 30 30 31 31 31 31 32 32 33 33 34 34 35 35 36 37 38 39 39 40 41 42 43 43 44 45 46 47 48

GEFSSGP_500_meanwind_114.txt.gz
Wind_Speed
10 10 10 11 11 11 12 12 13 13 14 15 16 17 17 16 16 16 16 16 15 15 15 14 13 12 12 11 11 11 11 11 11 11 12 12 13 13 14 14 15 15 16 16 16 17 17 17 17
12 12 12 12 11 11 12 12 12 12 13 14 14 15 15 16 16 16 16 16 16 16 15 14 13 13 12 12 11 11 12 12 12 12 12 13 14 14 15 15 16 16 16 16 17 17 17 18 19
15 14 13 13 12 13 13 12 12 13 14 14 14 13 13 15 15 16 16 16 16 16 15 14 14 13 12 12 12 12 12 12 12 13 13 14 14 15 15 16 16 16 17 17 18 18 19 19 20
18 17 16 15 15 15 13 13 13 14 14 14 14 13 13 14 15 16 16 16 16 16 15 14 14 13 13 13 12 12 12 12 13 14 14 15 15 15 16 16 16 17 17 18 19 19 20 20 20
22 20 18 17 17 16 15 14 14 15 15 15 14 13 14 14 14 15 15 15 15 15 15 14 14 13 13 13 13 13 13 14 15 15 15 16 16 17 17 17 18 18 19 20 20 21 21 21 21
26 24 21 20 19 18 17 15 15 16 16 16 15 14 14 14 14 15 15 15 14 15 15 14 14 14 13 13 14 14 15 15 16 16 16 17 17 17 18 18 19 19 20 20 21 22 22 22 23
29 27 24 23 22 20 19 17 17 17 17 16 15 15 15 15 15 15 14 14 14 14 14 14 14 14 14 14 14 15 15 16 16 16 17 17 17 18 18 19 20 20 21 22 22 23 23 23 24
33 31 28 26 25 23 22 20 19 19 18 17 16 16 16 16 16 15 15 15 14 14 14 14 14 14 14 14 15 15 15 16 16 16 17 17 18 19 19 20 21 21 22 23 23 24 24 25 25
37 35 31 29 28 26 25 23 22 21 20 19 18 17 17 17 16 16 16 16 15 15 14 14 15 15 15 15 15 16 16 16 17 17 18 18 19 19 20 21 22 23 24 24 25 25 26 26 26
40 37 33 32 31 30 28 26 25 23 22 21 19 19 18 18 17 17 17 17 17 16 16 16 16 16 16 16 16 17 17 17 18 18 19 20 21 21 22 23 24 24 25 26 26 27 27 28 28
42 38 36 37 35 33 32 30 28 26 25 24 22 21 20 19 18 18 19 19 18 18 17 17 17 17 17 17 18 18 18 19 20 20 21 22 23 23 24 24 25 26 27 27 28 28 28 29 29
44 41 40 39 39 37 35 33 31 28 28 28 25 23 22 21 20 20 21 20 20 19 19 19 18 18 19 19 20 20 20 21 21 22 23 23 24 25 26 27 27 28 28 29 29 29 30 30 31
46 43 43 42 42 40 38 36 34 31 31 31 29 26 25 24 23 22 22 22 21 21 21 20 20 20 21 21 21 22 22 23 23 24 24 25 26 27 28 28 29 30 30 31 31 31 31 32 32
47 46 46 45 44 42 41 39 38 34 35 35 32 30 28 26 25 25 24 23 23 22 22 22 22 22 22 23 23 24 24 25 25 26 27 27 28 29 30 30 31 31 32 32 32 33 33 34 34
49 48 48 46 45 44 44 43 39 37 38 37 36 33 31 29 28 27 26 26 25 25 25 24 24 24 24 25 25 26 27 27 28 29 29 30 30 31 31 32 33 33 33 34 34 34 35 35 35
51 51 49 46 46 46 47 44 40 40 41 39 38 37 34 32 31 30 29 29 28 28 28 27 27 26 26 27 28 28 29 30 31 31 32 32 33 33 34 34 34 34 35 35 35 35 36 36 36
54 52 49 47 47 47 49 45 42 43 43 41 41 39 38 36 34 33 32 32 31 31 30 30 30 30 30 30 30 30 31 32 33 34 34 35 35 35 35 35 35 36 36 36 36 37 37 37 37
52 50 47 47 47 49 50 47 45 45 45 43 42 41 40 38 37 36 36 35 35 34 33 33 33 33 33 33 33 33 34 35 35 36 37 37 37 37 37 37 37 37 37 37 37 37 37 37 37
49 50 49 48 48 50 50 49 46 47 47 45 44 43 42 41 40 40 39 38 37 36 36 35 36 35 36 36 36 36 36 37 37 38 38 38 39 38 38 38 38 38 38 38 38 38 38 38 38
51 51 50 49 48 50 50 50 48 47 47 45 44 43 43 42 42 42 41 40 39 38 38 38 38 38 38 38 38 38 38 38 38 39 39 40 40 39 39 39 39 39 39 40 40 40 39 39 39
51 50 48 48 47 49 51 51 49 47 46 45 44 43 43 42 42 42 42 42 41 40 40 40 40 40 40 40 40 40 40 39 39 39 40 41 40 40 39 40 40 40 40 40 41 40 40 39 39
50 47 47 47 47 48 50 52 48 46 45 44 43 43 42 41 41 42 42 42 42 42 42 42 41 41 41 41 41 40 41 40 40 41 41 41 41 40 40 40 41 40 40 41 40 40 39 39 39
48 45 46 46 47 48 49 52 48 45 43 42 42 42 41 41 41 41 41 41 41 41 41 41 41 41 41 41 41 41 41 41 41 41 41 41 41 41 41 41 41 40 41 41 40 40 39 39 40
46 45 45 46 48 51 48 50 49 42 40 39 40 40 40 40 40 40 40 39 39 39 40 40 40 40 39 39 39 40 40 40 40 41 41 41 41 41 41 41 41 40 40 40 40 39 39 39 40
49 48 47 48 50 52 47 48 47 37 37 38 38 39 39 39 39 39 39 39 38 38 38 38 38 38 38 38 39 39 39 40 40 41 41 41 40 40 40 40 40 39 39 39 39 39 39 39 40
51 51 51 50 50 48 46 46 42 37 35 35 36 36 37 37 38 37 37 37 37 37 37 37 37 37 37 37 38 38 38 38 39 39 39 39 39 39 39 38 38 38 39 39 39 39 39 40 41
50 50 48 47 47 47 47 44 41 38 34 33 33 33 33 34 34 34 34 34 34 34 35 35 35 35 36 36 37 37 37 37 37 38 38 38 38 38 38 38 38 38 38 39 39 39 39 40 41
50 48 48 48 47 47 46 43 39 35 32 31 31 30 30 30 31 31 31 32 32 32 33 33 34 34 35 35 35 35 35 35 35 36 36 36 37 37 36 36 37 37 38 39 39 39 39 40 42
51 51 50 49 49 47 46 42 35 33 31 30 30 29 29 29 29 29 29 30 30 31 31 32 32 32 32 32 33 33 33 33 33 34 34 35 35 36 36 36 37 37 37 37 38 39 40 41 42
49 49 48 49 48 47 44 40 34 32 31 30 28 28 28 28 27 27 27 28 28 29 29 30 30 30 30 31 31 31 32 32 32 33 34 34 35 35 35 36 36 37 37 38 39 40 40 41 42